[[{"header":{"parameterUnit":"m.s-1","parameterCategory":1,"la1":30.2991,"la2":30.254,"lo1":-89.0895,"lo2":-89.0444,"dy":0.0017,"dx":0.0017,"nx":28,"ny":28,"refTime":"2024-06-21T09:00:00:Z","depth":0,"parameterNumber":2,"parameterNumberName":"U-component_of_WINDS"},"data":[0,0,0,0,0,0,0,0,0,0,0,0,0,0,0,0,0,0,0,0,0,0,0,0,0,0,0,0,0,0,0,0,0,0,0,0,0,0,0,0,0,0,0,0,0,0,0,0,0,0,0,0,0,0,0,0,0,0,-0.0796,-0.0795,0,-0.0716,-0.0715,-0.0714,-0.0677,-0.0677,-0.0677,-0.0677,-0.0595,-0.0593,-0.0591,0,0,0,0,0,0,0,0,0,0,0,0,0,-0.0917,-0.0915,-0.0796,-0.0795,-0.0794,-0.0716,-0.0715,-0.0714,-0.0677,-0.0677,-0.0677,-0.0677,-0.0596,-0.0593,-0.059,0,0,0,0,0,0,0,0,0,0,0,0,0,-0.0854,-0.0914,-0.0796,-0.0766,-0.0763,-0.0716,-0.0715,-0.0714,-0.0677,-0.0677,-0.0677,-0.0677,-0.0597,-0.0593,-0.059,-0.0567,0,0,-0.058,-0.0578,0,0,0,0,0,0,0,0,-0.0857,-0.0849,-0.0772,-0.0768,-0.0764,-0.0707,-0.0727,-0.0665,-0.0677,-0.071,-0.0677,-0.0677,-0.0632,-0.0626,-0.061,-0.0563,-0.056,-0.0579,-0.0577,-0.0576,-0.0575,0,0,0,0,0,0,0,-0.0862,-0.0852,-0.0764,-0.0771,-0.0766,-0.0757,-0.0748,-0.0715,-0.0671,-0.0707,-0.0704,-0.0695,-0.063,-0.0614,-0.0608,-0.0559,-0.0579,-0.0576,-0.0574,-0.0573,-0.0489,-0.0488,0,0,0,0,0,0,-0.0871,-0.0856,-0.0767,-0.0762,-0.0812,-0.0755,-0.0745,-0.0725,-0.0671,-0.0663,-0.0695,-0.0694,-0.062,-0.0612,-0.0605,-0.0575,-0.0576,-0.0573,-0.0571,-0.0489,-0.0489,-0.0488,0,0,0,0,0,0,-0.0874,-0.0863,-0.077,-0.0808,-0.0796,-0.0752,-0.0731,-0.0723,-0.0707,-0.0663,-0.0654,-0.0687,-0.0619,-0.061,-0.0577,-0.0571,-0.0571,-0.0568,-0.0489,-0.0489,-0.0488,-0.0514,0,0,0,0,0,0,-0.0877,-0.0865,-0.0855,-0.0808,-0.0794,-0.0743,-0.073,-0.0722,-0.0701,-0.0699,-0.0653,-0.0645,-0.0619,-0.0582,-0.0574,-0.0567,-0.0565,-0.0489,-0.0489,-0.0489,-0.0514,-0.0515,-0.0516,0,0,0,0,0,-0.0882,-0.0866,-0.0855,-0.0845,-0.0782,-0.0743,-0.0735,-0.0705,-0.0701,-0.0692,-0.0663,-0.0646,-0.0574,-0.0579,-0.0569,-0.0561,-0.049,-0.0489,-0.0489,-0.0513,-0.0514,-0.0516,0,0,0,0,0,0,-0.0913,-0.0859,-0.0847,-0.0815,-0.0784,-0.0737,-0.0724,-0.0707,-0.0677,-0.0676,-0.064,-0.063,-0.06,-0.0577,-0.0584,-0.0536,-0.053,-0.0528,-0.0552,-0.0553,-0.0554,-0.056,-0.0563,0,0,0,0,0,-0.0917,-0.089,-0.0844,-0.082,-0.0805,-0.0768,-0.075,-0.0729,-0.0696,-0.0682,-0.0651,-0.0619,-0.0589,-0.057,-0.054,-0.051,-0.05,-0.05,-0.0501,-0.0502,-0.05,-0.0483,-0.0483,-0.0487,-0.0487,-0.0487,0,0,-0.0923,-0.089,-0.0875,-0.0826,-0.0799,-0.0772,-0.0757,-0.0729,-0.0708,-0.0678,-0.0645,-0.0621,-0.0583,-0.0552,-0.0536,-0.0532,-0.0497,-0.0502,-0.0503,-0.05,-0.0482,-0.0482,-0.0482,-0.0486,-0.0486,-0.0486,0,0,-0.0921,-0.0893,-0.0871,-0.0845,-0.0805,-0.078,-0.0774,-0.073,-0.0713,-0.0679,-0.0656,-0.0631,-0.058,-0.0553,-0.0533,-0.0522,-0.0505,-0.0513,-0.0518,-0.0502,-0.0502,-0.0501,-0.0497,-0.0496,-0.0511,-0.0511,-0.0511,0,-0.0934,-0.0892,-0.0861,-0.0834,-0.0813,-0.0785,-0.0762,-0.0738,-0.069,-0.0676,-0.0672,-0.0608,-0.058,-0.0542,-0.0539,-0.0524,-0.0517,-0.0518,-0.0504,-0.0503,-0.0503,-0.0498,-0.0496,-0.0513,-0.0512,-0.0512,-0.0512,0,-0.091,-0.0882,-0.0868,-0.0823,-0.08,-0.0776,-0.0741,-0.0722,-0.0704,-0.0679,-0.0645,-0.0611,-0.0573,-0.0563,-0.0545,-0.0523,-0.0521,-0.0511,-0.0504,-0.0504,-0.0499,-0.0497,-0.0514,-0.0514,-0.0514,-0.0513,0,0,-0.0925,-0.0863,-0.0859,-0.0838,-0.0792,-0.0769,-0.0743,-0.0707,-0.0691,-0.0659,-0.0636,-0.0594,-0.0585,-0.0562,-0.0541,-0.0527,-0.0519,-0.0518,-0.0517,-0.0519,-0.0492,-0.05,-0.0498,-0.0508,-0.0508,-0.0508,-0.0495,0,-0.0917,-0.0868,-0.084,-0.0803,-0.0777,-0.075,-0.0727,-0.0696,-0.0673,-0.0647,-0.0621,-0.0591,-0.0581,-0.0567,-0.0552,-0.0524,-0.0513,-0.0524,-0.0487,-0.0486,-0.0497,-0.0496,-0.0503,-0.0493,-0.0493,-0.0493,-0.0493,0,-0.09,-0.0869,-0.083,-0.0787,-0.0774,-0.0755,-0.0719,-0.0694,-0.0659,-0.0643,-0.0618,-0.0597,-0.0568,-0.0564,-0.0524,-0.0532,-0.0515,-0.0499,-0.0498,-0.0493,-0.0489,-0.049,-0.049,-0.0488,-0.0489,-0.049,-0.049,0,-0.0914,-0.0863,-0.0832,-0.0816,-0.0765,-0.0751,-0.073,-0.0695,-0.0675,-0.0643,-0.063,-0.0596,-0.0577,-0.0551,-0.0521,-0.0521,-0.0484,-0.0478,-0.047,-0.0471,-0.0463,-0.0464,-0.0459,-0.0453,-0.0453,-0.0453,-0.0453,0,-0.0907,-0.0884,-0.0838,-0.082,-0.0793,-0.0761,-0.0736,-0.0712,-0.0681,-0.0657,-0.0632,-0.061,-0.0573,-0.0546,-0.0523,-0.0494,-0.0485,-0.0471,-0.0465,-0.0473,-0.0475,-0.0461,-0.0461,-0.0453,-0.0453,-0.0453,-0.0453,0,-0.0919,-0.0887,-0.0852,-0.0807,-0.0795,-0.0778,-0.0739,-0.072,-0.0696,-0.0666,-0.0657,-0.0619,-0.0586,-0.0554,-0.0511,-0.0495,-0.0466,-0.0458,-0.0478,-0.0475,-0.0469,-0.047,-0.0455,-0.0451,-0.0448,-0.0448,-0.0448,0,-0.0916,-0.0898,-0.0851,-0.0833,-0.0812,-0.0784,-0.0763,-0.0731,-0.071,-0.0669,-0.0655,-0.0621,-0.0592,-0.0542,-0.051,-0.0476,-0.0467,-0.0464,-0.0462,-0.0471,-0.0467,-0.0468,-0.0466,-0.0465,-0.0466,-0.0466,-0.0466,0,-0.0915,-0.09,-0.0871,-0.0837,-0.0812,-0.0784,-0.0754,-0.0741,-0.0703,-0.0681,-0.0648,-0.0626,-0.0582,-0.0548,-0.0511,-0.0489,-0.0471,-0.0467,-0.0463,-0.0471,-0.0483,-0.0476,-0.0481,-0.0467,-0.0467,-0.0467,-0.0467,-0.0467,-0.0919,-0.0901,-0.0865,-0.0834,-0.0808,-0.0781,-0.0761,-0.0734,-0.0706,-0.0667,-0.065,-0.0617,-0.0582,-0.0531,-0.0509,-0.0482,-0.0477,-0.0472,-0.0471,-0.047,-0.0472,-0.0488,-0.0475,-0.0475,-0.0475,-0.0475,-0.0475,0,-0.0916,-0.0891,-0.0863,-0.0822,-0.0798,-0.0783,-0.075,-0.073,-0.0701,-0.067,-0.0642,-0.0604,-0.0572,-0.0537,-0.0503,-0.0488,-0.0479,-0.048,-0.0481,-0.0476,-0.0478,-0.0484,-0.0488,-0.0488,-0.0488,-0.0488,-0.0488,-0.0488,-0.0911,-0.0881,-0.0862,-0.0819,-0.0794,-0.0761,-0.0743,-0.0718,-0.0694,-0.0652,-0.0625,-0.0603,-0.0571,-0.0534,-0.0503,-0.0494,-0.0482,-0.0486,-0.0474,-0.0477,-0.0476,-0.0475,-0.0481,-0.0484,-0.0484,-0.0474,-0.0474,-0.0474]},{"header":{"parameterUnit":"m.s-1","parameterCategory":1,"la1":30.2991,"la2":30.254,"lo1":-89.0895,"lo2":-89.0444,"dy":0.0017,"dx":0.0017,"nx":28,"ny":28,"refTime":"2024-06-21T09:00:00:Z","depth":0,"parameterNumber":3,"parameterNumberName":"V-component_of_WINDS"},"data":[0,0,0,0,0,0,0,0,0,0,0,0,0,0,0,0,0,0,0,0,0,0,0,0,0,0,0,0,0,0,0,0,0,0,0,0,0,0,0,0,0,0,0,0,0,0,0,0,0,0,0,0,0,0,0,0,0,0,2.6435,2.6435,0,2.6424,2.6424,2.6424,2.6419,2.6419,2.6419,2.6419,2.6406,2.6406,2.6405,0,0,0,0,0,0,0,0,0,0,0,0,0,2.645,2.645,2.6435,2.6435,2.6435,2.6424,2.6424,2.6424,2.6419,2.6419,2.6419,2.6419,2.6406,2.6406,2.6405,0,0,0,0,0,0,0,0,0,0,0,0,0,2.6442,2.645,2.6435,2.6431,2.6431,2.6424,2.6424,2.6424,2.6419,2.6419,2.6419,2.6419,2.6406,2.6406,2.6405,2.6401,0,0,2.6404,2.6403,0,0,0,0,0,0,0,0,2.6442,2.6441,2.6432,2.6431,2.6431,2.6423,2.6424,2.6416,2.6419,2.6423,2.6419,2.6419,2.6412,2.6411,2.6408,2.6401,2.64,2.6404,2.6403,2.6403,2.6403,0,0,0,0,0,0,0,2.6443,2.6441,2.6431,2.6432,2.6431,2.6429,2.6428,2.6423,2.6417,2.6423,2.6423,2.6422,2.6411,2.6409,2.6408,2.64,2.6404,2.6403,2.6403,2.6402,2.6388,2.6388,0,0,0,0,0,0,2.6444,2.6442,2.6431,2.643,2.6437,2.6429,2.6428,2.6425,2.6417,2.6416,2.6422,2.6421,2.641,2.6409,2.6408,2.6403,2.6403,2.6402,2.6402,2.6388,2.6388,2.6388,0,0,0,0,0,0,2.6444,2.6443,2.6431,2.6436,2.6434,2.6429,2.6426,2.6425,2.6423,2.6416,2.6415,2.642,2.641,2.6408,2.6403,2.6402,2.6402,2.6402,2.6389,2.6388,2.6388,2.6392,0,0,0,0,0,0,2.6445,2.6443,2.6442,2.6436,2.6434,2.6427,2.6426,2.6425,2.6422,2.6422,2.6415,2.6414,2.641,2.6404,2.6403,2.6401,2.6401,2.6389,2.6388,2.6388,2.6392,2.6392,2.6393,0,0,0,0,0,2.6445,2.6443,2.6442,2.6441,2.6433,2.6427,2.6426,2.6422,2.6422,2.6421,2.6417,2.6414,2.6402,2.6403,2.6402,2.64,2.6389,2.6389,2.6388,2.6392,2.6392,2.6393,0,0,0,0,0,0,2.6448,2.6442,2.6441,2.6437,2.6433,2.6427,2.6425,2.6423,2.6418,2.6418,2.6413,2.6411,2.6406,2.6403,2.6404,2.6396,2.6395,2.6395,2.6399,2.6399,2.6399,2.64,2.6401,0,0,0,0,0,2.6448,2.6445,2.644,2.6437,2.6435,2.643,2.6428,2.6425,2.6421,2.6419,2.6414,2.6409,2.6405,2.6401,2.6397,2.6392,2.639,2.639,2.639,2.639,2.639,2.6387,2.6387,2.6388,2.6388,2.6388,0,0,2.6448,2.6445,2.6443,2.6437,2.6434,2.643,2.6429,2.6425,2.6422,2.6418,2.6413,2.6409,2.6404,2.6399,2.6396,2.6395,2.6389,2.639,2.639,2.639,2.6387,2.6387,2.6387,2.6388,2.6388,2.6388,0,0,2.6447,2.6444,2.6441,2.6438,2.6433,2.643,2.643,2.6424,2.6422,2.6417,2.6414,2.641,2.6402,2.6398,2.6395,2.6393,2.6391,2.6392,2.6392,2.639,2.639,2.639,2.6389,2.6389,2.6391,2.6391,2.6391,0,2.6447,2.6443,2.6439,2.6436,2.6434,2.6431,2.6428,2.6424,2.6418,2.6416,2.6416,2.6406,2.6402,2.6396,2.6396,2.6394,2.6392,2.6392,2.639,2.639,2.639,2.6389,2.6389,2.6392,2.6392,2.6392,2.6392,0,2.6444,2.644,2.6438,2.6433,2.6431,2.6427,2.6423,2.6421,2.6419,2.6416,2.6411,2.6406,2.6401,2.6399,2.6396,2.6393,2.6393,2.6391,2.639,2.639,2.6389,2.6389,2.6392,2.6392,2.6392,2.6392,0,0,2.6443,2.6437,2.6436,2.6434,2.6429,2.6426,2.6423,2.6418,2.6416,2.6412,2.6409,2.6403,2.6402,2.6398,2.6395,2.6393,2.6392,2.6392,2.6392,2.6392,2.6388,2.6389,2.6389,2.6391,2.6391,2.6391,2.6389,0,2.6441,2.6435,2.6433,2.6428,2.6425,2.6422,2.6419,2.6416,2.6413,2.641,2.6406,2.6402,2.6401,2.6399,2.6397,2.6393,2.6391,2.6393,2.6387,2.6387,2.6389,2.6388,2.6389,2.6388,2.6388,2.6388,2.6388,0,2.6437,2.6434,2.6429,2.6425,2.6424,2.6421,2.6417,2.6414,2.641,2.6408,2.6405,2.6402,2.6398,2.6398,2.6392,2.6394,2.6391,2.6389,2.6389,2.6388,2.6388,2.6388,2.6387,2.6387,2.6388,2.6388,2.6388,0,2.6437,2.6432,2.6429,2.6427,2.6422,2.642,2.6418,2.6414,2.6411,2.6408,2.6406,2.6401,2.6399,2.6395,2.6392,2.6392,2.6386,2.6386,2.6384,2.6385,2.6383,2.6383,2.6382,2.6382,2.6382,2.6382,2.6382,0,2.6435,2.6432,2.6429,2.6426,2.6423,2.642,2.6417,2.6415,2.6411,2.6408,2.6406,2.6403,2.6398,2.6395,2.6392,2.6388,2.6386,2.6385,2.6384,2.6385,2.6385,2.6383,2.6383,2.6382,2.6382,2.6382,2.6382,0,2.6434,2.6432,2.6428,2.6424,2.6423,2.6421,2.6417,2.6415,2.6412,2.6409,2.6408,2.6403,2.6399,2.6395,2.6389,2.6387,2.6383,2.6382,2.6385,2.6385,2.6384,2.6384,2.6381,2.6381,2.6381,2.6381,2.6381,0,2.6433,2.6431,2.6427,2.6425,2.6423,2.642,2.6418,2.6415,2.6413,2.6409,2.6407,2.6403,2.6399,2.6393,2.6389,2.6385,2.6383,2.6383,2.6383,2.6384,2.6383,2.6384,2.6383,2.6383,2.6383,2.6383,2.6383,0,2.6431,2.643,2.6427,2.6424,2.6422,2.6419,2.6416,2.6415,2.6411,2.6409,2.6405,2.6403,2.6397,2.6393,2.6389,2.6386,2.6384,2.6383,2.6383,2.6383,2.6385,2.6384,2.6385,2.6383,2.6383,2.6383,2.6383,2.6383,2.643,2.6428,2.6425,2.6422,2.642,2.6418,2.6416,2.6413,2.641,2.6406,2.6405,2.6401,2.6397,2.6391,2.6388,2.6385,2.6384,2.6383,2.6383,2.6383,2.6383,2.6386,2.6384,2.6384,2.6384,2.6384,2.6384,0,2.6428,2.6426,2.6424,2.642,2.6418,2.6417,2.6414,2.6412,2.6409,2.6406,2.6403,2.6399,2.6395,2.6391,2.6387,2.6385,2.6384,2.6384,2.6384,2.6384,2.6384,2.6385,2.6385,2.6385,2.6385,2.6385,2.6385,2.6385,2.6426,2.6424,2.6422,2.6418,2.6416,2.6413,2.6412,2.6409,2.6407,2.6403,2.64,2.6398,2.6394,2.639,2.6387,2.6386,2.6384,2.6384,2.6383,2.6384,2.6383,2.6383,2.6384,2.6384,2.6384,2.6383,2.6383,2.6383]}]]